Location: ????????
(55.6189°N, 38.3031°E)
Time: 15:39:30
(UTC+00:00)

NOAA 6 - Pass Details

Date: 15 November 2019
Orbit: 771 x 788 km, 98.6° (Epoch: 10 December)

Event Time Altitude Azimuth Distance (km) Brightness Sun altitude
Rises 03:29:24 0° 16° (NNE) 3,275 7.3 -12.6°
Reaches altitude 10° 03:31:44 10° 16° (NNE) 2,340 6.5 -12.3°
Maximum altitude 03:36:54 87° 288° (WNW) 784 4.0 -11.6°
Drops below altitude 10° 03:42:02 10° 200° (SSW) 2,316 6.5 -10.9°
Sets 03:44:19 0° 200° (SSW) 3,238 7.2 -10.6°
